Regional Weather Roundup
Issued by NWS

Home | Current Version | Previous Version | Text Only | Print | Product List | Glossary On
Versions: 1 2 3 4 5 6 7 8 9 10 11 12 13 14 15 16 17 18 19 20 21 22 23 24 25 26 27 28 29 30 31 32 33 34 35 36 37 38 39 40 41 42 43 44 45 46 47 48 49 50
000
ASUS44 KMEG 262110
RWRTN
TENNESSEE HOURLY STATE WEATHER ROUNDUP
NATIONAL WEATHER SERVICE MEMPHIS TN
400 PM CDT THU APR 26 2018

TNZ002-004-019-021-049-052-054-088>092-262200-
WEST TENNESSEE

CITY           SKY/WX    TMP DP  RH WIND       PRES   REMARKS
MEMPHIS INTL   PTSUNNY   61  56  83 N14       29.87F
NWS MEMPHIS      N/A     62 N/A N/A MISG        N/A
JACKSON        CLOUDY    59  57  93 NE10      29.86F
DYERSBURG      FAIR      64  56  75 N12       29.88S
SOMERVILLE     CLOUDY    61  55  82 N9G16     29.85S
COVINGTON      CLOUDY    63  57  82 N12       29.87F
UNION CITY     PTSUNNY   63  50  63 NE8       29.88F
BOLIVAR        CLOUDY    59  57  94 NW7G14    29.85R FOG
PARIS          MOSUNNY   59  55  88 NE6       29.88F
HUNTINGDON     MOSUNNY   59  57  94 N7        29.87S
LEXINGTON      CLOUDY    59  54  82 NE8       29.85S
SAVANNAH       CLOUDY    59  57  94 NE7       29.83S
$$

TNZ008-025-027-028-033-062-065-066-262200-
NORTH MIDDLE TENNESSEE

CITY           SKY/WX    TMP DP  RH WIND       PRES   REMARKS
NASHVILLE      LGT RAIN  58  53  84 N12       29.87R
PORTLAND       CLOUDY    57  52  82 CALM      29.87R
CLARKSVILLE    CLOUDY    58  50  75 NW5       29.88S
SMYRNA         LGT RAIN  59  54  83 N7        29.87S
COOKEVILLE     MOSUNNY   57  52  82 CALM      29.84F
LIVINGSTON     MOCLDY    57  46  67 SE3       29.85F
GALLATIN       CLOUDY    59  54  82 NW3       29.90R
CROSSVILLE     CLOUDY    52  47  83 E6        29.85F
$$

TNZ061-075-076-078-094-096-097-262200-
SOUTH MIDDLE TENNESSEE

CITY           SKY/WX    TMP DP  RH WIND       PRES   REMARKS
LEWISBURG      CLOUDY    57  54  88 CALM      29.85R
FAYETTEVILLE   PTSUNNY   54  54 100 N7        29.83S FOG
TULLAHOMA      PTSUNNY   55  54  94 CALM      29.84R FOG
WINCHESTER     CLOUDY    52  52 100 N5        29.84R FOG
MCMINNVILLE    CLOUDY    55  52  88 NE8       29.84S
COLUMBIA       PTSUNNY   57  57 100 NE6       29.84R
SHELBYVILLE    CLOUDY    57  52  82 CALM      29.84S
$$

TNZ017-018-042-046-047-262200-
NORTHEAST TENNESSEE

CITY           SKY/WX    TMP DP  RH WIND       PRES   REMARKS
TRI CITIES     LGT RAIN  58  50  75 W6        29.87S
ELIZABETHTON   LGT RAIN  55  52  88 CALM      29.88S
$$

TNZ012-013-036-069-073-074-262200-
CENTRAL EAST TENNESSEE

CITY           SKY/WX    TMP DP  RH WIND       PRES   REMARKS
KNOXVILLE      CLOUDY    56  53  90 E7        29.83F
OAK RIDGE      CLOUDY    56  55  97 CALM      29.85F
DOWNTOWN KNOXV PTSUNNY   57  54  88 CALM      29.84F
GATLINBURG     PTSUNNY   55  52  88 NE6       29.83F
MORRISTOWN     MOSUNNY   55  50  82 CALM      29.84F
JACKSBORO      CLOUDY    55  50  82 CALM      29.89F
$$

TNZ083-085-099-262200-
SOUTHEAST TENNESSEE

CITY           SKY/WX    TMP DP  RH WIND       PRES   REMARKS
CHATTANOOGA    CLOUDY    58  52  80 N12       29.81F
DAYTON         CLOUDY    55  55 100 N6        29.83S
$$

SKY/WX REPORTED AS FAIR MEANS FEW OR NO CLOUDS BELOW
12 THOUSAND FEET.




USA.gov is the U.S. government's official web portal to all federal, state and local government web resources and services.